Torna al catalogo

STARLINK-34637

AttivoComunicazioniVLEO
NORAD 64776·PAYLOAD·🇺🇸 United States

Lanciato Jul 8, 2025 da Cape Canaveral Space Force Station

Loading…

Prossimi Passaggi (prossime 24 ore)

TLE

AggiornatoSource: CelesTrak SupGP

Epoca: Sep 14, 2026, 14:04 UTC

1 64776C 25147X   26257.58659722 -.00013365  00000+0 -39480-3 0  2578
2 64776  53.1584  81.5345 0001255  96.1480   2.9259 15.34403496    12

Traccia STARLINK-34637 in tempo reale con AllMySat

Download on the App Store